EW7004 Weather Reports


Display with metric or nautical units.
time (UTC)temp
F
wind
direction
speed
MPH
gust
MPH
rain 1hr
in
rain 24hr
in
rain mn
in
humidity
%
barometer
mb
20210618001437 97 213 0.0 6.0 0.00 0.00 0.00 22 1005.5
20210618000937 97 213 1.0 6.0 0.00 0.00 0.00 22 1005.5
20210617235945 97 212 1.0 7.0 0.00 0.00 0.00 22 1005.6
20210617234937 97 210 1.0 8.0 0.00 0.00 0.00 22 1005.6
20210617234439 97 207 1.0 8.0 0.00 0.00 0.00 21 1005.5
20210617233939 97 208 1.0 8.0 0.00 0.00 0.00 21 1005.5
20210617233441 97 208 1.0 8.0 0.00 0.00 0.00 21 1005.5
20210617232939 98 208 1.0 8.0 0.00 0.00 0.00 21 1005.5
20210617232439 99 204 1.0 8.0 0.00 0.00 0.00 21 1005.5
20210617231937 99 205 1.0 12.0 0.00 0.00 0.00 21 1005.5
20210617231439 99 208 1.0 12.0 0.00 0.00 0.00 21 1005.5
20210617230940 99 208 1.0 12.0 0.00 0.00 0.00 21 1005.5
20210617230437 100 204 2.0 12.0 0.00 0.00 0.00 20 1005.4
20210617225937 100 204 2.0 12.0 0.00 0.00 0.00 20 1005.4
20210617225437 101 216 1.0 12.0 0.00 0.00 0.00 20 1005.4
20210617224937 101 218 1.0 13.0 0.00 0.00 0.00 21 1005.5
20210617224440 101 220 1.0 13.0 0.00 0.00 0.00 21 1005.5
20210617223939 102 217 2.0 13.0 0.00 0.00 0.00 21 1005.5
20210617223438 102 204 3.0 13.0 0.00 0.00 0.00 20 1005.5
20210617222936 102 205 4.0 13.0 0.00 0.00 0.00 21 1005.5
20210617222440 103 213 4.0 13.0 0.00 0.00 0.00 20 1005.5
20210617221939 103 212 3.0 13.0 0.00 0.00 0.00 20 1005.5
20210617221439 103 220 1.0 13.0 0.00 0.00 0.00 20 1005.5
20210617220937 103 218 1.0 13.0 0.00 0.00 0.00 20 1005.6
20210617220436 104 224 1.0 5.0 0.00 0.00 0.00 20 1005.6
20210617215938 104 222 1.0 5.0 0.00 0.00 0.00 20 1005.7
20210617214937 105 212 1.0 5.0 0.00 0.00 0.00 19 1005.7
20210617214438 105 210 1.0 8.0 0.00 0.00 0.00 18 1005.8
20210617213937 104 209 1.0 8.0 0.00 0.00 0.00 18 1005.8
20210617213443 104 203 1.0 8.0 0.00 0.00 0.00 18 1005.9
20210617212946 104 203 1.0 8.0 0.00 0.00 0.00 17 1006.1
20210617211940 104 203 1.0 8.0 0.00 0.00 0.00 17 1006.1
20210617210937 104 204 1.0 8.0 0.00 0.00 0.00 17 1006.1
20210617210436 104 205 0.0 8.0 0.00 0.00 0.00 17 1006.2
20210617205937 104 206 0.0 5.0 0.00 0.00 0.00 18 1006.3
20210617205438 103 207 0.0 5.0 0.00 0.00 0.00 18 1006.4
20210617204938 103 208 0.0 5.0 0.00 0.00 0.00 18 1006.4
20210617204440 103 210 0.0 2.0 0.00 0.00 0.00 18 1006.5
20210617203939 103 211 0.0 3.0 0.00 0.00 0.00 18 1006.5
20210617203439 103 213 0.0 3.0 0.00 0.00 0.00 18 1006.6
20210617202937 103 213 0.0 3.0 0.00 0.00 0.00 18 1006.6
20210617202439 102 216 0.0 3.0 0.00 0.00 0.00 18 1006.7
20210617201937 102 217 0.0 3.0 0.00 0.00 0.00 18 1006.7
20210617201439 102 219 0.0 3.0 0.00 0.00 0.00 18 1006.8
20210617200938 102 219 0.0 6.0 0.00 0.00 0.00 19 1006.8
20210617200441 102 219 0.0 6.0 0.00 0.00 0.00 19 1006.9
20210617195940 102 218 1.0 8.0 0.00 0.00 0.00 19 1006.9
20210617195439 101 226 1.0 8.0 0.00 0.00 0.00 20 1007.0
20210617194936 101 230 1.0 8.0 0.00 0.00 0.00 20 1007.1
20210617194440 101 238 1.0 8.0 0.00 0.00 0.00 21 1007.1
20210617193939 101 240 1.0 8.0 0.00 0.00 0.00 21 1007.2
20210617193439 100 246 1.0 8.0 0.00 0.00 0.00 22 1007.2
20210617192936 100 247 1.0 8.0 0.00 0.00 0.00 22 1007.2
20210617192440 100 257 1.0 8.0 0.00 0.00 0.00 23 1007.3
20210617191937 99 270 0.0 8.0 0.00 0.00 0.00 23 1007.4
20210617191440 100 296 1.0 3.0 0.00 0.00 0.00 24 1007.4
20210617190937 100 293 1.0 3.0 0.00 0.00 0.00 24 1007.4
20210617190439 99 290 1.0 3.0 0.00 0.00 0.00 24 1007.5
20210617185939 99 288 1.0 3.0 0.00 0.00 0.00 24 1007.6
20210617185442 98 291 0.0 3.0 0.00 0.00 0.00 25 1007.7
20210617184943 95 291 0.0 3.0 0.00 0.00 0.00 27 1007.8
20210617183940 95 290 0.0 3.0 0.00 0.00 0.00 27 1007.8
20210617182940 95 290 0.0 3.0 0.00 0.00 0.00 27 1007.9
20210617182441 95 290 0.0 3.0 0.00 0.00 0.00 27 1007.9
20210617181945 94 290 0.0 3.0 0.00 0.00 0.00 28 1008.0
20210617180937 94 290 0.0 3.0 0.00 0.00 0.00 28 1008.1
20210617180439 93 295 0.0 3.0 0.00 0.00 0.00 29 1008.1
20210617175943 91 320 0.0 3.0 0.00 0.00 0.00 31 1008.2
20210617174941 91 327 0.0 2.0 0.00 0.00 0.00 31 1008.2
20210617173940 91 329 0.0 2.0 0.00 0.00 0.00 32 1008.2
20210617172940 90 329 0.0 2.0 0.00 0.00 0.00 32 1008.2
20210617171943 90 329 0.0 2.0 0.00 0.00 0.00 33 1008.2
20210617170937 89 329 0.0 0.0 0.00 0.00 0.00 33 1008.3
20210617170439 88 329 0.0 0.0 0.00 0.00 0.00 34 1008.3
20210617165940 87 329 0.0 0.0 0.00 0.00 0.00 35 1008.4
20210617164939 86 329 0.0 0.0 0.00 0.00 0.00 36 1008.5
20210617164440 84 330 0.0 0.0 0.00 0.00 0.00 37 1008.6
20210617163941 83 330 0.0 0.0 0.00 0.00 0.00 38 1008.6
20210617162939 83 330 0.0 0.0 0.00 0.00 0.00 38 1008.6
20210617161939 83 330 0.0 0.0 0.00 0.00 0.00 38 1008.6
20210617161440 82 307 0.0 0.0 0.00 0.00 0.00 40 1008.7
20210617160938 82 294 0.0 0.0 0.00 0.00 0.00 40 1008.7
20210617160438 81 264 0.0 0.0 0.00 0.00 0.00 41 1008.7
20210617155936 81 271 0.0 0.0 0.00 0.00 0.00 42 1008.8
20210617155438 79 282 0.0 0.0 0.00 0.00 0.00 43 1008.8
20210617154937 79 284 0.0 0.0 0.00 0.00 0.00 43 1008.8
20210617154438 78 284 0.0 0.0 0.00 0.00 0.00 44 1008.7
20210617153941 78 284 0.0 0.0 0.00 0.00 0.00 45 1008.7
20210617152942 77 284 0.0 0.0 0.00 0.00 0.00 45 1008.7
20210617151943 77 284 0.0 0.0 0.00 0.00 0.00 45 1008.7
20210617150939 77 284 0.0 0.0 0.00 0.00 0.00 45 1008.7
20210617145946 76 284 0.0 0.0 0.00 0.00 0.00 47 1008.7
20210617144940 76 284 0.0 0.0 0.00 0.00 0.00 48 1008.7
20210617144441 75 284 0.0 0.0 0.00 0.00 0.00 49 1008.6
20210617143940 73 269 0.0 0.0 0.00 0.00 0.00 51 1008.5
20210617142938 73 254 0.0 0.0 0.00 0.00 0.00 53 1008.5
20210617142438 71 214 0.0 0.0 0.00 0.00 0.00 55 1008.5
20210617141939 71 202 0.0 0.0 0.00 0.00 0.00 56 1008.5
20210617140939 70 199 0.0 0.0 0.00 0.00 0.00 57 1008.5
20210617135944 69 199 0.0 0.0 0.00 0.00 0.00 59 1008.4
20210617134937 69 199 0.0 0.0 0.00 0.00 0.00 59 1008.4
20210617134438 69 199 0.0 0.0 0.00 0.00 0.00 58 1008.3
20210617133944 69 199 0.0 0.0 0.00 0.00 0.00 58 1008.3
20210617133443 69 199 0.0 0.0 0.00 0.00 0.00 58 1008.3
20210617132945 69 199 0.0 0.0 0.00 0.00 0.00 59 1008.2
20210617131936 69 199 0.0 0.0 0.00 0.00 0.00 59 1008.2
20210617131439 69 199 0.0 0.0 0.00 0.00 0.00 59 1008.1
20210617130939 69 199 0.0 0.0 0.00 0.00 0.00 59 1008.1
20210617130439 68 199 0.0 0.0 0.00 0.00 0.00 59 1008.1
20210617125936 68 199 0.0 0.0 0.00 0.00 0.00 59 1008.0
20210617125440 68 199 0.0 0.0 0.00 0.00 0.00 59 1007.9
20210617124937 68 199 0.0 0.0 0.00 0.00 0.00 59 1007.9
20210617124440 68 199 0.0 0.0 0.00 0.00 0.00 59 1007.8
20210617123938 68 199 0.0 0.0 0.00 0.00 0.00 59 1007.8
20210617123441 68 199 0.0 0.0 0.00 0.00 0.00 59 1007.7
20210617122942 68 199 0.0 0.0 0.00 0.00 0.00 59 1007.7
20210617122439 68 199 0.0 0.0 0.00 0.00 0.00 59 1007.6
20210617121940 68 199 0.0 0.0 0.00 0.00 0.00 59 1007.6
20210617121439 68 199 0.0 0.0 0.00 0.00 0.00 59 1007.5
20210617120942 68 199 0.0 0.0 0.00 0.00 0.00 59 1007.5
20210617115947 68 199 0.0 0.0 0.00 0.00 0.00 58 1007.4
20210617115445 69 199 0.0 0.0 0.00 0.00 0.00 57 1007.4
20210617114946 69 199 0.0 0.0 0.00 0.00 0.00 57 1007.4
20210617113938 69 199 0.0 0.0 0.00 0.00 0.00 57 1007.4
20210617113443 70 199 0.0 0.0 0.00 0.00 0.00 56 1007.4
20210617112949 70 199 0.0 0.0 0.00 0.00 0.00 55 1007.3
20210617111944 70 199 0.0 0.0 0.00 0.00 0.00 55 1007.3
20210617110938 70 199 0.0 0.0 0.00 0.00 0.00 55 1007.3
20210617105944 70 199 0.0 0.0 0.00 0.00 0.00 54 1007.4
20210617105443 71 199 0.0 0.0 0.00 0.00 0.00 53 1007.4
20210617104944 71 199 0.0 0.0 0.00 0.00 0.00 53 1007.3
20210617103941 71 199 0.0 0.0 0.00 0.00 0.00 53 1007.3
20210617103439 71 199 0.0 0.0 0.00 0.00 0.00 53 1007.3
20210617102944 72 199 0.0 0.0 0.00 0.00 0.00 53 1007.3
20210617100944 72 199 0.0 0.0 0.00 0.00 0.00 53 1007.4
20210617100443 72 199 0.0 0.0 0.00 0.00 0.00 53 1007.4
20210617095942 72 199 0.0 0.0 0.00 0.00 0.00 53 1007.5
20210617095442 72 199 0.0 0.0 0.00 0.00 0.00 53 1007.5
20210617094942 72 199 0.0 0.0 0.00 0.00 0.00 52 1007.5
20210617094440 72 199 0.0 0.0 0.00 0.00 0.00 52 1007.6
20210617093938 72 199 0.0 0.0 0.00 0.00 0.00 52 1007.6
20210617093441 72 199 0.0 0.0 0.00 0.00 0.00 52 1007.7
20210617092938 72 199 0.0 0.0 0.00 0.00 0.00 52 1007.7
20210617092439 72 199 0.0 0.0 0.00 0.00 0.00 51 1007.7
20210617091938 72 199 0.0 0.0 0.00 0.00 0.00 51 1007.7
20210617091442 73 199 0.0 0.0 0.00 0.00 0.00 51 1007.8
20210617090938 73 199 0.0 0.0 0.00 0.00 0.00 51 1007.8
20210617090441 73 199 0.0 0.0 0.00 0.00 0.00 51 1007.8
20210617085939 73 199 0.0 0.0 0.00 0.00 0.00 51 1007.9
20210617085441 73 199 0.0 0.0 0.00 0.00 0.00 51 1007.9
20210617084941 73 199 0.0 0.0 0.00 0.00 0.00 51 1008.0
20210617084444 73 199 0.0 0.0 0.00 0.00 0.00 51 1008.0
20210617083949 73 199 0.0 0.0 0.00 0.00 0.00 50 1008.0
20210617083447 73 199 0.0 0.0 0.00 0.00 0.00 50 1008.1
20210617082944 74 199 0.0 0.0 0.00 0.00 0.00 49 1008.1
20210617081939 74 199 0.0 0.0 0.00 0.00 0.00 49 1008.2
20210617081441 74 199 0.0 0.0 0.00 0.00 0.00 49 1008.2
20210617080941 74 199 0.0 0.0 0.00 0.00 0.00 49 1008.2
20210617080442 74 199 0.0 0.0 0.00 0.00 0.00 48 1008.3
20210617075943 75 199 0.0 0.0 0.00 0.00 0.00 48 1008.4
20210617075445 75 199 0.0 0.0 0.00 0.00 0.00 48 1008.4
20210617074946 75 199 0.0 0.0 0.00 0.00 0.00 47 1008.5
20210617074449 75 199 0.0 1.0 0.00 0.00 0.00 47 1008.6
20210617073944 75 199 0.0 1.0 0.00 0.00 0.00 47 1008.6
20210617072938 76 199 0.0 1.0 0.00 0.00 0.00 46 1008.8
20210617072439 76 199 0.0 1.0 0.00 0.00 0.00 46 1008.8
20210617071943 76 199 0.0 1.0 0.00 0.00 0.00 46 1008.8
20210617070940 76 202 0.0 1.0 0.00 0.00 0.00 46 1008.9
20210617065944 77 203 0.0 0.0 0.00 0.00 0.00 44 1009.1
20210617064939 77 204 0.0 0.0 0.00 0.00 0.00 44 1009.2
20210617064445 77 204 0.0 0.0 0.00 0.00 0.00 44 1009.2
20210617063946 77 204 0.0 0.0 0.00 0.00 0.00 43 1009.2
20210617062444 78 204 0.0 0.0 0.00 0.00 0.00 42 1009.2
20210617061943 78 204 0.0 0.0 0.00 0.00 0.00 42 1009.3
20210617060940 78 204 0.0 0.0 0.00 0.00 0.00 42 1009.3
20210617055946 78 204 0.0 0.0 0.00 0.00 0.00 42 1009.3
20210617055445 78 204 0.0 0.0 0.00 0.00 0.00 41 1009.3
20210617054942 78 204 0.0 0.0 0.00 0.00 0.00 41 1009.3
20210617054441 78 204 0.0 0.0 0.00 0.00 0.00 41 1009.3
20210617053942 78 204 0.0 0.0 0.00 0.00 0.00 41 1009.3
20210617053442 79 204 0.0 0.0 0.00 0.00 0.00 41 1009.3
20210617052948 79 204 0.0 0.0 0.00 0.00 0.00 41 1009.2
20210617052444 79 204 0.0 0.0 0.00 0.00 0.00 40 1009.3
20210617051948 79 203 0.0 0.0 0.00 0.00 0.00 40 1009.2
20210617050939 79 202 0.0 0.0 0.00 0.00 0.00 40 1009.2
20210617045945 79 200 0.0 0.0 0.00 0.00 0.00 40 1009.0
20210617044938 79 200 0.0 0.0 0.00 0.00 0.00 40 1009.0
20210617044444 79 200 0.0 0.0 0.00 0.00 0.00 39 1009.0
20210617043946 79 200 0.0 0.0 0.00 0.00 0.00 39 1008.9
20210617042941 79 200 0.0 2.0 0.00 0.00 0.00 39 1008.9
20210617042441 79 200 0.0 2.0 0.00 0.00 0.00 39 1008.8
20210617041939 79 200 0.0 3.0 0.00 0.00 0.00 39 1008.8
20210617041439 80 200 0.0 3.0 0.00 0.00 0.00 38 1008.7
20210617040941 80 200 0.0 3.0 0.00 0.00 0.00 38 1008.7
20210617040441 80 201 0.0 3.0 0.00 0.00 0.00 38 1008.6
20210617035942 80 203 0.0 3.0 0.00 0.00 0.00 38 1008.5
20210617035442 80 210 0.0 3.0 0.00 0.00 0.00 38 1008.4
20210617034942 80 211 0.0 3.0 0.00 0.00 0.00 38 1008.4
20210617034439 80 212 0.0 0.0 0.00 0.00 0.00 38 1008.3
20210617033940 81 211 0.0 0.0 0.00 0.00 0.00 38 1008.3
20210617033443 81 214 0.0 0.0 0.00 0.00 0.00 37 1008.2
20210617032941 81 215 0.0 0.0 0.00 0.00 0.00 37 1008.1
20210617032439 81 217 0.0 6.0 0.00 0.00 0.00 37 1008.0
20210617031938 82 218 0.0 6.0 0.00 0.00 0.00 37 1008.0
20210617031444 82 216 0.0 6.0 0.00 0.00 0.00 37 1007.9
20210617030941 82 217 0.0 6.0 0.00 0.00 0.00 37 1007.9
20210617025943 83 204 0.0 6.0 0.00 0.00 0.00 37 1007.7
20210617024939 84 204 0.0 1.0 0.00 0.00 0.00 36 1007.6
20210617024440 85 210 0.0 0.0 0.00 0.00 0.00 35 1007.4
20210617023942 85 213 0.0 0.0 0.00 0.00 0.00 35 1007.4
20210617022942 85 214 0.0 5.0 0.00 0.00 0.00 35 1007.3
20210617021937 85 216 1.0 5.0 0.00 0.00 0.00 35 1007.3
20210617021437 86 211 2.0 5.0 0.00 0.00 0.00 34 1007.2
20210617020940 86 212 2.0 5.0 0.00 0.00 0.00 34 1007.2
20210617020441 86 211 1.0 5.0 0.00 0.00 0.00 34 1007.2
20210617015941 87 215 0.0 5.0 0.00 0.00 0.00 34 1007.1
20210617015437 87 211 0.0 0.0 0.00 0.00 0.00 34 1007.0
20210617014941 87 213 0.0 0.0 0.00 0.00 0.00 34 1006.9
20210617013937 87 213 0.0 1.0 0.00 0.00 0.00 34 1006.9
20210617013442 88 220 0.0 1.0 0.00 0.00 0.00 34 1006.9
20210617012944 88 217 0.0 1.0 0.00 0.00 0.00 33 1006.7
20210617011939 88 215 0.0 1.0 0.00 0.00 0.00 33 1006.7
20210617011436 89 217 0.0 1.0 0.00 0.00 0.00 32 1006.7
20210617010936 89 217 0.0 1.0 0.00 0.00 0.00 32 1006.7
20210617010438 90 217 0.0 1.0 0.00 0.00 0.00 32 1006.6
20210617005943 90 209 0.0 1.0 0.00 0.00 0.00 32 1006.6
20210617005439 90 212 0.0 1.0 0.00 0.00 0.00 32 1006.7
20210617004939 90 212 0.0 1.0 0.00 0.00 0.00 32 1006.7
20210617003942 91 210 0.0 1.0 0.00 0.00 0.00 31 1006.7
20210617002939 91 208 0.0 3.0 0.00 0.00 0.00 31 1006.7
20210617002437 92 209 0.0 6.0 0.00 0.00 0.00 31 1006.6
20210617001939 92 208 0.0 6.0 0.00 0.00 0.00 31 1006.6